User: anonymous   Login
Location: Sungai Bunut
(2.6333°N, 113.7333°E)
Time: 19:56:03
(UTC+00:00)
Language:

SR - Orbit

View from above orbital plane
View from above orbital plane
View from above satellite
View from above satellite

Ground track
Ground track

The orbit data is extracted from the following two-line orbital elements,

1    46U 60007B   23340.03122900  .00001126  00000-0  23368-3 0  9997
2    46  66.6900 221.4582 0212108 266.3395  91.3438 14.51167503322706
Epoch (UTC): 06 December 2023 00:44:58
Eccentricity: 0.0212108
inclination: 66.6900°
perigee height: 571 km
apogee height: 872 km
right ascension of ascending node: 221.4582°
argument of perigee: 266.3395°
revolutions per day: 14.51167503
mean anomaly at epoch: 91.3438°
orbit number at epoch: 32270

The dashed part of the orbit path shows where the satellite is in the earth's shadow,  

DLR